Tel Aviv, Israel

10:25 AM IDT on October 22, 2017 (GMT +0300)
Ben Gurion

Weather History for LLBG - November, 2011

Change the Weather History Date:

Wednesday, November 16, 2011

  Actual Average Record
Temperature  
Mean Temperature 60 °F -  
Max Temperature 64 °F 69 °F 82 °F (2002)
Min Temperature 57 °F 53 °F 51 °F (2003)
Degree Days  
Heating Degree Days 4    
Growing Degree Days 10 (Base 50)    
Moisture  
Dew Point 50 °F    
Average Humidity 69    
Maximum Humidity 88    
Minimum Humidity 36    
Precipitation  
Precipitation 0.31 in - - ()
Sea Level Pressure  
Sea Level Pressure 30.01 in    
Wind  
Wind Speed 11 mph ()    
Max Wind Speed 18 mph    
Max Gust Speed 30 mph    
Visibility 5.9 miles    
Events Rain    
Averages and records for this station are not official NWS values.
T = Trace of Precipitation, MM = Missing Value Source: Averaged Metar Reports

Daily Weather History Graph

Daily Weather History Graph

Search for Another Location

Airport or City:

Trip Planner

Search our weather history database for the weather conditions in past years. The results will help you decide how hot, cold, wet, or windy it might be!

Date:

Astronomy

Nov. 16, 2011 Rise Set
Actual Time 6:09 AM IST 4:40 PM IST
Civil Twilight 5:43 AM IST 5:06 PM IST
Nautical Twilight 5:13 AM IST 5:35 PM IST
Astronomical Twilight 4:44 AM IST 6:04 PM IST
Moon 9:29 PM IST (11/16) 10:33 AM IST (11/16)
Length of Visible Light 11h 22m
Length of Day
10h 30m
Waning Gibbous, 73% of the Moon is Illuminated
Nov 16
Waning Gibbous
Nov 18
Last Quarter
Nov 25
New
Dec 2
First Quarter
Dec 10
Full

Hourly Weather History & Observations

Time (IST) Temp. Dew Point Humidity Pressure Visibility Wind Dir Wind Speed Gust Speed Precip Events Conditions
12:50 AM 59.0 °F 39.2 °F 48% 29.98 in 6.2 mi South 13.8 mph - N/A   Mostly Cloudy
1:50 AM 59.0 °F 39.2 °F 48% 29.98 in 6.2 mi SSE 12.7 mph - N/A   Scattered Clouds
2:00 AM 58 °F 38 °F 36% 29.99 in 6 mi SSE 12.7 mph - -   Partly Cloudy
2:50 AM 57.2 °F 39.2 °F 51% 29.98 in 6.2 mi South 12.7 mph - N/A   Scattered Clouds
3:50 AM 59.0 °F 39.2 °F 48% 29.98 in 6.2 mi South 17.3 mph - N/A   Mostly Cloudy
4:50 AM 59.0 °F 39.2 °F 48% 29.95 in 6.2 mi South 16.1 mph - N/A   Scattered Clouds
5:50 AM 57.2 °F 39.2 °F 51% 29.98 in 6.2 mi South 17.3 mph - N/A   Scattered Clouds
6:50 AM 57.2 °F 39.2 °F 51% 30.01 in 6.2 mi South 15.0 mph - N/A   Mostly Cloudy
7:50 AM 59.0 °F 41.0 °F 51% 30.01 in 6.2 mi South 15.0 mph - N/A   Mostly Cloudy
8:00 AM 58 °F 40 °F 40% 30.02 in 6 mi South 15.0 mph - -   Mostly Cloudy
8:50 AM 60.8 °F 42.8 °F 52% 30.01 in 6.2 mi South 17.3 mph - N/A   Mostly Cloudy
9:50 AM 60.8 °F 46.4 °F 59% 30.04 in 6.2 mi South 17.3 mph - N/A Rain Light Rain
10:38 AM 59.0 °F 50.0 °F 72% 30.04 in 6.2 mi South 10.4 mph - N/A Rain Rain
10:50 AM 59.0 °F 50.0 °F 72% 30.04 in 5.0 mi SSW 5.8 mph - N/A Rain Rain
11:45 AM 62.6 °F 53.6 °F 72% 30.01 in 6.2 mi South 17.3 mph 28.8 mph N/A   Mostly Cloudy
11:50 AM 62.6 °F 53.6 °F 72% 30.01 in 6.2 mi South 17.3 mph 28.8 mph N/A   Mostly Cloudy
12:50 PM 64.4 °F 55.4 °F 73% 30.01 in 5.0 mi SSW 18.4 mph 29.9 mph N/A Rain Light Rain
1:50 PM 60.8 °F 57.2 °F 88% 30.01 in 5.0 mi SSW 16.1 mph - N/A Rain Light Rain
2:00 PM 61 °F 57 °F 84% 30.01 in 5 mi SSW 16.1 mph - - Rain Rain
2:38 PM 62.6 °F 57.2 °F 82% 30.01 in 4.3 mi Variable 1.2 mph - N/A   Mostly Cloudy
2:50 PM 62.6 °F 57.2 °F 82% 30.01 in 6.2 mi Variable 1.2 mph - N/A   Mostly Cloudy
3:50 PM 62.6 °F 57.2 °F 82% 30.01 in 6.2 mi South 8.1 mph - N/A Rain Light Rain
4:22 PM 62.6 °F 57.2 °F 82% 30.01 in 4.3 mi South 9.2 mph - N/A Rain Rain
4:50 PM 62.6 °F 57.2 °F 82% 30.01 in 6.2 mi WSW 6.9 mph - N/A   Mostly Cloudy
5:50 PM 62.6 °F 57.2 °F 82% 30.01 in 6.2 mi SE 3.5 mph - N/A   Mostly Cloudy
6:50 PM 62.6 °F 57.2 °F 82% 30.04 in 6.2 mi ESE 4.6 mph - N/A   Mostly Cloudy
7:50 PM 62.6 °F 57.2 °F 82% 30.04 in 6.2 mi ESE 5.8 mph - N/A   Mostly Cloudy
8:00 PM 62 °F 57 °F 80% 30.05 in 6 mi ESE 5.8 mph - -   Partly Cloudy
8:50 PM 62.6 °F 57.2 °F 82% 30.04 in 6.2 mi SE 6.9 mph - N/A   Mostly Cloudy
9:50 PM 60.8 °F 57.2 °F 88% 30.04 in 6.2 mi SE 5.8 mph - N/A Rain Light Rain
10:50 PM 60.8 °F 57.2 °F 88% 30.06 in 5.6 mi SSE 6.9 mph - N/A Rain Rain
11:50 PM 60.8 °F 57.2 °F 88% 30.06 in 6.2 mi SSW 8.1 mph - N/A Rain Light Rain